Date String (YYYY-MM-DD hh:mm:ss) UTC,Instrument flags,absolute air pressure of the measurement (hPa),sample flow rate (lpm),inlet stack bypass flow (lpm),air temperature of the measurement (°C),ambient temperature measured by the external sensor (°C),aerosol sample conditioner tube jacket temperature (°C),OPC LED temperature (°C),internal box temperature (°C),relative humidity of the measurement (%),span deviation,mass concentration of particles derived from Lorenz-Mie calculation of OPC scattering (μg/m³),mass concentration of particles derived from Lorenz-Mie calculation of OPC scattering (μg/m³),mass concentration of particles derived from Lorenz-Mie calculation of OPC scattering (μg/m³)
DateTimeUTC,F1_M11,P_M11,Q1_M11,Q2_M11,T1_M11,T2_M11,T3_M11,T4_M11,T5_M11,U1_M11,ZSPAN_M11,X0_M11,X2_M11,X1_M11
2023-11-13 05:00:00,SystemResetWarning,0838.3,5.00,000.00,026.8,025.8,000.0,035.2,028.3,7.9,0000.0,0007.52,0003.17,0002.40
2023-11-13 05:01:00,SystemResetWarning,0838.3,5.00,000.00,026.8,025.8,000.0,035.2,028.3,7.9,0000.0,0007.76,0003.21,0002.42
2023-11-13 05:02:00,SystemResetWarning,0838.3,5.01,000.00,026.8,025.8,000.0,035.2,028.3,7.9,0000.0,0007.86,0003.22,0002.41
2023-11-13 05:03:00,SystemResetWarning,0838.3,5.00,000.00,026.8,025.9,000.0,035.2,028.3,7.9,0000.0,0007.97,0003.27,0002.40
2023-11-13 05:04:00,SystemResetWarning,0838.3,5.00,000.00,026.8,025.8,000.0,035.2,028.3,7.8,0000.0,0008.64,0003.28,0002.41
2023-11-13 05:05:00,SystemResetWarning,0838.3,4.99,000.00,026.8,025.8,000.0,035.2,028.3,7.8,0000.0,0008.74,0003.31,0002.44
2023-11-13 05:06:00,SystemResetWarning,0838.3,4.99,000.00,026.8,025.8,000.0,035.2,028.3,7.8,0000.0,0009.24,0003.32,0002.47
2023-11-13 05:07:00,SystemResetWarning,0838.2,5.00,000.00,026.8,025.8,000.0,035.2,028.3,7.8,0000.0,0009.71,0003.37,0002.50
2023-11-13 05:08:00,SystemResetWarning,0838.2,5.00,000.00,026.8,025.8,000.0,035.2,028.3,7.8,0000.0,0008.83,0003.40,0002.54
2023-11-13 05:09:00,SystemResetWarning,0838.2,5.01,000.00,026.8,025.8,000.0,035.2,028.3,7.8,0000.0,0008.85,0003.44,0002.57
2023-11-13 05:10:00,SystemResetWarning,0838.3,5.00,000.00,026.8,025.8,000.0,035.2,028.3,7.8,0000.0,0009.39,0003.48,0002.59
2023-11-13 05:11:00,SystemResetWarning,0838.2,5.00,000.00,026.8,025.8,000.0,035.2,028.2,7.8,0000.0,0009.93,0003.53,0002.62
2023-11-13 05:12:00,SystemResetWarning,0838.2,5.00,000.00,026.8,025.8,000.0,035.2,028.2,7.8,0000.0,0009.81,0003.55,0002.61
2023-11-13 05:13:00,SystemResetWarning,0838.3,5.00,000.00,026.8,025.8,000.0,035.2,028.2,7.8,0000.0,0009.76,0003.56,0002.62
2023-11-13 05:14:00,SystemResetWarning,0838.3,5.00,000.00,026.8,025.8,000.0,035.2,028.2,7.7,0000.0,0009.79,0003.56,0002.62
2023-11-13 05:15:00,SystemResetWarning,0838.3,4.99,000.00,026.8,025.8,000.0,035.2,028.3,7.7,0000.0,0009.45,0003.58,0002.63
2023-11-13 05:16:00,SystemResetWarning,0838.3,4.99,000.00,026.8,025.8,000.0,035.2,028.3,7.7,0000.0,0009.26,0003.57,0002.62
2023-11-13 05:17:00,SystemResetWarning,0838.3,4.99,000.00,026.8,025.8,000.0,035.2,028.2,7.7,0000.0,0008.90,0003.56,0002.62
2023-11-13 05:18:00,SystemResetWarning,0838.3,5.00,000.00,026.8,025.7,000.0,035.2,028.2,7.7,0000.0,0009.10,0003.59,0002.62
2023-11-13 05:19:00,SystemResetWarning,0838.3,5.01,000.00,026.8,025.7,000.0,035.2,028.2,7.7,0000.0,0009.56,0003.58,0002.60
2023-11-13 05:20:00,SystemResetWarning,0838.3,5.01,000.00,026.8,025.7,000.0,035.2,028.3,7.7,0000.0,0009.47,0003.54,0002.57
2023-11-13 05:21:00,SystemResetWarning,0838.3,4.99,000.00,026.8,025.8,000.0,035.2,028.2,7.7,0000.0,0009.34,0003.54,0002.56
2023-11-13 05:22:00,SystemResetWarning,0838.2,5.00,000.00,026.8,025.8,000.0,035.2,028.2,7.7,0000.0,0008.74,0003.51,0002.56
2023-11-13 05:23:00,SystemResetWarning,0838.2,5.00,000.00,026.8,025.8,000.0,035.2,028.2,7.7,0000.0,0008.75,0003.50,0002.57
2023-11-13 05:24:00,SystemResetWarning,0838.2,5.00,000.00,026.8,025.8,000.0,035.2,028.2,7.7,0000.0,0008.94,0003.51,0002.58
2023-11-13 05:25:00,SystemResetWarning,0838.2,4.99,000.00,026.8,025.8,000.0,035.2,028.2,7.7,0000.0,0009.05,0003.49,0002.57
2023-11-13 05:26:00,SystemResetWarning,0838.1,4.99,000.00,026.8,025.8,000.0,035.2,028.2,7.7,0000.0,0008.96,0003.46,0002.56
2023-11-13 05:27:00,SystemResetWarning,0838.1,5.00,000.00,026.8,025.8,000.0,035.2,028.2,7.7,0000.0,0008.95,0003.47,0002.56
2023-11-13 05:28:00,SystemResetWarning,0838.2,5.00,000.00,026.8,025.8,000.0,035.2,028.2,7.7,0000.0,0009.81,0003.46,0002.55
2023-11-13 05:29:00,SystemResetWarning,0838.2,5.01,000.00,026.8,025.8,000.0,035.2,028.2,7.7,0000.0,0009.34,0003.43,0002.54
2023-11-13 05:30:00,SystemResetWarning,0838.2,5.00,000.00,026.8,025.8,000.0,035.2,028.3,7.7,0000.0,0008.86,0003.40,0002.55
2023-11-13 05:31:00,SystemResetWarning,0838.2,5.00,000.00,026.8,025.8,000.0,035.2,028.3,7.7,0000.0,0008.75,0003.40,0002.56
2023-11-13 05:32:00,SystemResetWarning,0838.2,5.00,000.00,026.8,025.8,000.0,035.2,028.3,7.7,0000.0,0008.35,0003.37,0002.57
2023-11-13 05:33:00,SystemResetWarning,0838.2,5.01,000.00,026.8,025.8,000.0,035.2,028.2,7.7,0000.0,0009.12,0003.35,0002.56
2023-11-13 05:34:00,SystemResetWarning,0838.2,5.00,000.00,026.8,025.8,000.0,035.2,028.2,7.7,0000.0,0009.75,0003.34,0002.54
2023-11-13 05:35:00,SystemResetWarning,0838.2,5.00,000.00,026.8,025.8,000.0,035.2,028.3,7.7,0000.0,0009.51,0003.31,0002.54
2023-11-13 05:36:00,SystemResetWarning,0838.3,4.99,000.00,026.8,025.8,000.0,035.2,028.3,7.8,0000.0,0009.40,0003.35,0002.58
2023-11-13 05:37:00,SystemResetWarning,0838.3,5.00,000.00,026.8,025.8,000.0,035.2,028.2,7.8,0000.0,0009.50,0003.37,0002.59
2023-11-13 05:38:00,SystemResetWarning,0838.3,5.01,000.00,026.8,025.8,000.0,035.2,028.2,7.8,0000.0,0009.56,0003.37,0002.61
2023-11-13 05:39:00,SystemResetWarning,0838.2,5.00,000.00,026.8,025.8,000.0,035.2,028.3,7.8,0000.0,0009.56,0003.37,0002.63
2023-11-13 05:40:00,SystemResetWarning,0838.2,5.00,000.00,026.8,025.8,000.0,035.2,028.3,7.8,0000.0,0009.31,0003.37,0002.65
2023-11-13 05:41:00,SystemResetWarning,0838.2,5.01,000.00,026.8,025.8,000.0,035.2,028.3,7.9,0000.0,0009.30,0003.43,0002.69
2023-11-13 05:42:00,SystemResetWarning,0838.3,5.00,000.00,026.8,025.8,000.0,035.2,028.3,7.9,0000.0,0009.48,0003.47,0002.72
2023-11-13 05:43:00,SystemResetWarning,0838.2,5.00,000.00,026.9,025.8,000.0,035.2,028.3,8.0,0000.0,0009.63,0003.51,0002.74
2023-11-13 05:44:00,SystemResetWarning,0838.2,5.00,000.00,026.9,025.8,000.0,035.2,028.3,8.0,0000.0,0009.29,0003.55,0002.78
2023-11-13 05:45:00,SystemResetWarning,0838.2,5.00,000.00,026.9,025.8,000.0,035.2,028.3,8.0,0000.0,0008.35,0003.55,0002.82
2023-11-13 05:46:00,SystemResetWarning,0838.2,5.00,000.00,026.9,025.8,000.0,035.2,028.3,8.0,0000.0,0008.60,0003.59,0002.85
2023-11-13 05:47:00,SystemResetWarning,0838.3,4.99,000.00,026.9,025.8,000.0,035.2,028.3,8.0,0000.0,0008.60,0003.56,0002.84
2023-11-13 05:48:00,SystemResetWarning,0838.2,5.00,000.00,026.9,025.8,000.0,035.2,028.3,8.0,0000.0,0008.39,0003.52,0002.85
2023-11-13 05:49:00,SystemResetWarning,0838.2,5.00,000.00,026.9,025.8,000.0,035.2,028.2,8.0,0000.0,0008.34,0003.53,0002.87
2023-11-13 05:50:00,SystemResetWarning,0838.2,5.00,000.00,026.9,025.8,000.0,035.2,028.2,8.1,0000.0,0007.68,0003.54,0002.88
2023-11-13 05:51:00,SystemResetWarning,0838.2,5.00,000.00,026.9,025.8,000.0,035.2,028.2,8.1,0000.0,0007.48,0003.55,0002.90
2023-11-13 05:52:00,SystemResetWarning,0838.2,5.01,000.00,026.9,025.8,000.0,035.2,028.2,8.1,0000.0,0007.39,0003.51,0002.89
2023-11-13 05:53:00,SystemResetWarning,0838.2,5.00,000.00,026.9,025.8,000.0,035.2,028.3,8.1,0000.0,0007.20,0003.49,0002.89
2023-11-13 05:54:00,SystemResetWarning,0838.2,5.00,000.00,026.9,025.8,000.0,035.2,028.3,8.0,0000.0,0007.61,0003.53,0002.89
2023-11-13 05:55:00,SystemResetWarning,0838.2,5.01,000.00,026.9,025.8,000.0,035.2,028.3,8.1,0000.0,0008.25,0003.49,0002.87
2023-11-13 05:56:00,SystemResetWarning,0838.2,5.00,000.00,026.9,025.8,000.0,035.2,028.3,8.1,0000.0,0008.17,0003.47,0002.85
2023-11-13 05:57:00,SystemResetWarning,0838.2,5.00,000.00,026.9,025.8,000.0,035.2,028.3,8.1,0000.0,0007.95,0003.46,0002.85
2023-11-13 05:58:00,SystemResetWarning,0838.2,5.00,000.00,026.9,025.8,000.0,035.2,028.2,8.1,0000.0,0008.41,0003.49,0002.86
2023-11-13 05:59:00,SystemResetWarning,0838.2,5.00,000.00,026.8,025.8,000.0,035.2,028.2,8.0,0000.0,0008.54,0003.51,0002.86
